15min,AgWx,beryljct,423,01JUL2018:00:00:00,59.6,12.99,61.5,60.0,61.5,62.3,59.8,30,37,28,0.619,30.0,33.9,28.4,0.789,0.1,124,0.0,0.8,-0.00044,-0.00070,77.1,77.3,12,0,0,55.4,13.84,0.00,0.00
15min,AgWx,beryljct,423,01JUL2018:00:15:00,58.8,12.99,58.6,56.8,58.9,61.2,56.2,38,49,28,0.631,33.0,38.0,27.4,1.096,1.3,186,22,2.7,-0.00015,-0.00019,76.8,77.2,12,0,0,55.6,13.84,0.00,0.00
15min,AgWx,beryljct,423,01JUL2018:00:30:00,58.1,12.98,60.2,59.5,59.7,61.7,57.2,33,41,27,0.525,30.6,34.7,27.2,0.438,0.2,209,0.2,1.2,-0.00038,-0.00059,76.4,77.1,12,0,0,54.4,13.85,0.00,0.00
15min,AgWx,beryljct,423,01JUL2018:00:45:00,57.7,12.95,61.7,60.7,61.3,62.8,59.2,29,38,25,0.538,28.3,33.7,26.1,1.666,0.6,246,29,2.3,-0.00031,-0.00045,76.1,77.0,12,0,0,56.0,13.85,0.00,0.00
15min,AgWx,beryljct,423,01JUL2018:01:00:00,57.5,12.95,61.7,62.1,61.4,62.1,60.5,28,32,25,0.484,27.6,30.9,26.1,2.499,1.5,317,18,3.1,-0.00012,-0.00013,75.7,76.9,12,0,0,55.8,13.85,0.00,0.00
15min,AgWx,beryljct,423,01JUL2018:01:15:00,57.7,12.95,60.2,56.0,60.7,62.1,55.5,30,47,25,0.654,28.3,36.0,26.0,0.811,3.2,325,3.3,4.1,0.00017,0.00029,75.4,76.8,12,0,0,56.6,13.85,0.00,0.00
15min,AgWx,beryljct,423,01JUL2018:01:30:00,57.1,12.94,58.6,60.2,57.9,60.2,55.8,34,45,26,0.483,29.2,34.8,25.3,0.526,0.5,321,0.0,2.0,-0.00030,-0.00045,75.1,76.7,12,0,0,53.0,13.85,0.00,0.00
15min,AgWx,beryljct,423,01JUL2018:01:45:00,56.6,12.94,60.2,59.3,60.1,61.0,58.0,28,37,25,0.585,26.8,32.5,24.6,2.674,1.3,322,2.3,2.7,-0.00016,-0.00019,74.8,76.6,12,0,0,54.7,13.85,0.00,0.00
15min,AgWx,beryljct,423,01JUL2018:02:00:00,55.8,12.93,55.8,57.2,55.9,59.0,51.1,41,61,31,0.596,31.9,38.5,27.0,2.083,2.0,316,2.2,3.0,-0.00005,-0.00003,74.5,76.5,12,0,0,53.3,13.85,0.00,0.00
15min,AgWx,beryljct,423,01JUL2018:02:15:00,54.6,12.92,54.4,57.9,54.1,57.9,51.7,46,58,30,0.493,33.6,37.8,26.1,3.771,2.8,310,8.7,3.8,0.00002,0.00007,74.1,76.4,12,0,0,51.5,13.85,0.00,0.00
15min,AgWx,beryljct,423,01JUL2018:02:30:00,54.4,12.92,58.2,55.9,58.1,59.5,55.9,32,40,27,0.614,28.2,32.1,25.2,4.297,4.0,320,5.4,4.9,0.00024,0.00037,73.8,76.2,12,0,0,54.5,13.85,0.00,0.00
15min,AgWx,beryljct,423,01JUL2018:02:45:00,54.3,12.91,54.4,52.5,54.6,55.6,52.5,42,51,36,0.685,32.2,34.9,28.7,2.784,3.5,334,7.4,5.1,0.00011,0.00019,73.6,76.1,12,0,0,52.3,13.85,0.00,0.00
15min,AgWx,beryljct,423,01JUL2018:03:00:00,53.6,12.9,54.7,56.2,54.0,56.2,51.8,41,51,32,0.493,30.6,34.6,26.8,0,1.7,330,17,2.9,-0.00009,-0.00009,73.2,76.0,12,0,0,50.0,13.85,0.00,0.00
15min,AgWx,beryljct,423,01JUL2018:03:15:00,53.1,12.9,52.9,50.7,53.3,56.3,50.7,44,52,34,0.644,31.5,34.8,27.9,0,1.2,156,21,7.5,-0.00016,-0.00021,73.0,75.9,12,0,0,49.5,13.85,0.00,0.00
15min,AgWx,beryljct,423,01JUL2018:03:30:00,52.2,12.9,50.6,49.9,50.5,52.3,48.1,53,68,43,0.697,33.9,38.3,30.3,0,0.1,164,0.0,0.7,-0.00034,-0.00053,72.7,75.7,12,0,0,47.0,13.85,0.00,0.00
15min,AgWx,beryljct,423,01JUL2018:03:45:00,51.1,12.89,47.2,47.8,47.3,49.7,45.9,66,73,51,0.687,36.4,37.9,31.0,0,0.3,163,1.1,1.9,-0.00029,-0.00044,72.4,75.6,12,0,0,45.8,13.86,0.00,0.00
15min,AgWx,beryljct,423,01JUL2018:04:00:00,50.3,12.89,50.6,47.7,50.3,53.4,47.6,52,68,35,0.763,33.2,37.6,26.5,0.395,0.2,164,0.1,1.3,-0.00032,-0.00049,72.1,75.5,12,0,0,46.7,13.86,0.00,0.00
15min,AgWx,beryljct,423,01JUL2018:04:15:00,49.7,12.88,48.6,49.1,48.3,50.5,46.6,61,72,48,0.633,35.5,38.1,31.7,2.126,2.0,265,23,3.7,-0.00011,-0.00012,71.9,75.3,12,0,0,46.5,13.86,0.00,0.00
15min,AgWx,beryljct,423,01JUL2018:04:30:00,49.1,12.88,47.0,45.2,47.1,49.0,45.2,50,61,39,0.581,29.1,34.4,24.1,3.398,3.6,317,16,4.5,0.00041,0.00071,71.6,75.2,12,0,0,45.8,13.86,0.00,0.00
15min,AgWx,beryljct,423,01JUL2018:04:45:00,48.6,12.87,47.9,48.9,47.2,49.8,45.1,47,57,39,0.563,27.8,31.0,23.4,3.858,4.1,315,5.9,5.0,0.00047,0.00082,71.3,75.1,12,0,0,45.5,13.86,0.00,0.00
15min,AgWx,beryljct,423,01JUL2018:05:00:00,48.6,12.87,51.7,50.9,51.2,54.5,49.0,43,47,34,0.584,29.5,31.7,26.3,4.713,4.2,306,9.6,6.1,0.00056,0.00098,71.1,74.9,12,0,0,48.9,13.86,0.00,0.00
15min,AgWx,beryljct,423,01JUL2018:05:15:00,48.8,12.86,48.2,46.0,48.6,51.3,45.4,55,65,45,0.582,32.8,35.5,30.0,2.389,2.9,173,46,4.6,0.00033,0.00056,70.8,74.8,12,2,0,47.4,13.86,0.00,0.00
15min,AgWx,beryljct,423,01JUL2018:05:30:00,48.2,12.88,45.6,45.5,45.6,47.9,43.8,59,74,47,0.581,32.0,36.5,28.7,3.244,2.5,158,17,3.9,0.00031,0.00048,70.5,74.6,12,15,0,45.5,13.86,0.00,0.00
15min,AgWx,beryljct,423,01JUL2018:05:45:00,48.0,12.88,46.6,47.3,46.2,47.7,45.0,57,66,52,0.631,31.8,34.4,30.0,0,1.4,210,1.4,3.6,0.00041,0.00054,70.3,74.5,12,48,0,52.5,13.86,0.00,0.00
15min,AgWx,beryljct,423,01JUL2018:06:00:00,48.4,12.89,48.3,47.9,48.0,48.9,47.1,58,67,51,0.761,33.8,37.5,31.2,1.271,0.5,157,28,3.2,0.00046,0.00053,70.0,74.4,12,82,0,61.4,13.86,0.00,0.00
15min,AgWx,beryljct,423,01JUL2018:06:15:00,49.6,12.87,47.1,47.6,46.9,47.8,46.3,70,76,63,0.762,37.4,40.2,34.5,1.25,1.3,146,6.2,3.1,0.00063,0.00074,69.8,74.2,12,120,0,65.7,13.86,0.00,0.00
15min,AgWx,beryljct,423,01JUL2018:06:30:00,51.2,12.89,48.7,48.8,48.4,48.9,47.7,68,71,62,0.824,38.2,39.7,36.2,1.776,2.1,144,4.5,3.1,0.00087,0.00104,69.6,74.1,12,162,0,69.5,13.86,0.00,0.00
15min,AgWx,beryljct,423,01JUL2018:06:45:00,53.0,12.91,50.3,51.0,50.0,51.0,48.9,66,69,61,0.855,38.9,41.3,37.5,1.6,1.8,143,1.2,2.3,0.00110,0.00127,69.4,74.0,12,207,0,74.8,13.85,0.00,0.00
15min,AgWx,beryljct,423,01JUL2018:07:00:00,54.9,12.92,52.8,53.9,52.3,53.9,51.0,61,68,57,0.832,39.4,40.8,37.8,1.82,2.3,148,2.5,3.7,0.00141,0.00166,69.2,73.8,12,254,0,77.9,13.85,0.00,0.00
15min,AgWx,beryljct,423,01JUL2018:07:15:00,57.1,12.93,55.3,55.9,54.9,55.9,53.9,56,62,51,0.853,39.7,43.2,36.2,2.587,2.5,139,11,3.3,0.00176,0.00207,69.0,73.7,12,304,0,82.5,13.85,0.00,0.00
15min,AgWx,beryljct,423,01JUL2018:07:30:00,59.4,12.95,57.4,58.2,57.1,58.2,56.0,53,59,42,0.826,39.9,43.5,35.2,1.973,2.0,122,1.1,2.9,0.00207,0.00238,68.9,73.1,12,354,0,88.2,13.85,0.00,0.00
15min,AgWx,beryljct,423,01JUL2018:07:45:00,61.9,12.97,59.7,60.4,59.4,60.5,58.2,47,56,36,0.812,39.3,43.0,33.4,0.833,1.9,133,14,2.9,0.00238,0.00273,68.8,73.4,12,392,0,93.5,13.85,0.00,0.00
15min,AgWx,beryljct,423,01JUL2018:08:00:00,64.4,13.06,61.2,61.3,61.1,61.7,60.5,39,50,28,0.743,36.1,41.8,28.3,1.622,1.2,155,7.0,2.3,0.00249,0.00280,68.8,73.3,12,404,0,99.5,13.84,0.00,0.00
15min,AgWx,beryljct,423,01JUL2018:08:15:00,66.6,13.22,62.1,63.6,61.9,63.6,61.2,39,47,33,0.746,36.6,41.3,32.0,0.285,1.2,120,5.8,2.4,0.00305,0.00341,68.7,73.1,12,502,0,101.4,13.84,0.00,0.00
15min,AgWx,beryljct,423,01JUL2018:08:30:00,68.8,13.35,64.3,65.0,64.3,65.0,63.6,38,48,28,0.893,37.9,43.6,31.3,0.877,0.9,134,11,2.3,0.00341,0.00376,68.8,73.0,12,550,0,105.2,13.84,0.00,0.00
15min,AgWx,beryljct,423,01JUL2018:08:45:00,71.2,13.6,66.3,66.7,66.2,67.4,64.9,37,45,31,0.743,38.9,44.6,34.1,2.784,0.5,129,26,3.3,0.00353,0.00383,68.8,72.9,11,563,0,110.7,13.83,0.00,0.00
15min,AgWx,beryljct,423,01JUL2018:09:00:00,73.2,13.87,67.8,68.5,67.8,68.7,66.8,34,44,24,0.692,38.3,44.9,30.1,3.42,2.3,67,22,4.4,0.00428,0.00488,68.9,72.8,11,647,0,106.0,13.83,0.00,0.00
15min,AgWx,beryljct,423,01JUL2018:09:15:00,74.7,14.05,69.4,70.1,69.5,70.1,68.5,32,40,25,0.955,37.9,44.9,32.1,4.845,3.0,45,29,7.0,0.00471,0.00546,69.1,72.7,11,690,0,103.8,13.83,0.00,0.00
15min,AgWx,beryljct,423,01JUL2018:09:30:00,75.8,14.02,71.1,72.4,71.0,72.6,69.7,28,44,19,0.510,35.6,47.1,27.4,3.617,4.1,37,36,7.1,0.00518,0.00615,69.3,72.6,11,732,0,102.0,13.82,0.00,0.00
15min,AgWx,beryljct,423,01JUL2018:09:45:00,76.7,14.06,72.0,73.3,72.1,73.3,71.1,28,35,19,0.571,36.8,42.9,27.6,7.344,5.5,30,16,9.8,0.00563,0.00682,69.5,72.5,11,772,0,99.3,13.82,0.00,0.00
15min,AgWx,beryljct,423,01JUL2018:10:00:00,77.3,14.01,72.8,73.7,72.9,73.7,72.1,28,38,20,0.755,37.2,46.0,29.8,4.582,6.1,35,14,9.7,0.00570,0.00700,69.8,72.4,11,754,0,98.1,13.82,0.00,0.00
15min,AgWx,beryljct,423,01JUL2018:10:15:00,78.1,14.01,73.9,74.1,74.1,75.4,73.5,28,37,18,1.008,38.3,46.5,29.4,4.275,5.5,34,17,9.5,0.00595,0.00720,70.1,72.4,11,800,0,101.7,13.82,0.00,0.00
15min,AgWx,beryljct,423,01JUL2018:10:30:00,79.1,13.92,74.8,74.7,74.9,75.9,74.0,26,38,17,0.722,37.5,47.4,27.3,3.398,4.6,51,24,8.5,0.00635,0.00752,70.5,72.3,11,871,0,105.9,13.82,0.00,0.00
15min,AgWx,beryljct,423,01JUL2018:10:45:00,80.3,13.97,75.9,75.8,76.0,78.1,74.8,27,36,18,0.811,39.4,47.6,30.4,4.384,3.9,52,43,8.6,0.00657,0.00765,71.0,72.3,11,908,0,109.8,13.82,0.00,0.00
15min,AgWx,beryljct,423,01JUL2018:11:00:00,81.2,13.99,76.2,76.1,76.4,77.5,75.8,29,39,18,0.954,41.2,49.6,30.4,4.384,4.1,74,22,7.2,0.00680,0.00791,71.4,72.3,11,937,0,109.7,13.82,0.00,0.00
15min,AgWx,beryljct,423,01JUL2018:11:15:00,81.8,13.87,76.7,76.9,76.9,78.1,75.9,30,43,16,1.045,42.3,52.1,28.0,4.494,4.2,79,43,7.8,0.00698,0.00812,72.0,72.3,11,961,0,110.3,13.82,0.00,0.00
15min,AgWx,beryljct,423,01JUL2018:11:30:00,82.5,13.88,77.4,77.8,77.6,77.9,76.8,27,39,17,1.106,40.5,50.7,29.4,3.201,2.6,132,13,6.3,0.00701,0.00793,72.5,72.3,11,982,0,117.5,13.81,0.00,0.00
15min,AgWx,beryljct,423,01JUL2018:11:45:00,83.4,13.45,78.1,78.5,78.3,79.1,77.9,28,39,17,0.797,42.1,51.3,30.5,3.135,2.8,125,19,5.6,0.00718,0.00814,73.1,72.3,11,999,0,119.0,13.81,0.00,0.00
15min,AgWx,beryljct,423,01JUL2018:12:00:00,84.2,13.41,78.4,79.0,78.6,79.1,78.2,29,39,19,0.664,42.9,51.7,33.1,3.924,3.1,129,28,5.4,0.00730,0.00831,73.8,72.4,11,1011,0,117.9,13.81,0.00,0.00
15min,AgWx,beryljct,423,01JUL2018:12:15:00,85.2,13.44,80.4,79.8,80.6,81.8,79.1,22,31,16,0.820,37.4,46.7,30.8,2.784,3.2,169,19,5.2,0.00749,0.00859,74.4,72.4,11,1020,0,118.0,13.82,0.00,0.00
15min,AgWx,beryljct,423,01JUL2018:12:30:00,86.2,13.37,80.4,80.1,80.8,82.0,79.8,24,39,16,0.931,40.1,52.9,31.2,4.275,2.6,158,28,5.3,0.00749,0.00847,75.1,72.5,11,1028,0,119.4,13.81,0.00,0.00
15min,AgWx,beryljct,423,01JUL2018:12:45:00,86.9,13.41,79.9,80.2,80.3,80.5,80.0,28,41,17,1.114,43.7,54.4,32.0,3.727,3.0,110,23,6.8,0.00752,0.00854,75.8,72.6,11,1029,0,118.1,13.81,0.00,0.00
15min,AgWx,beryljct,423,01JUL2018:13:00:00,87.3,13.38,80.2,81.0,80.5,81.0,80.1,32,44,23,1.050,48.0,56.7,39.7,2.806,3.5,110,19,5.0,0.00756,0.00862,76.5,72.7,11,1027,0,115.8,13.81,0.00,0.00
15min,AgWx,beryljct,423,01JUL2018:13:15:00,87.6,13.41,81.7,82.2,81.9,83.3,81.0,27,38,18,0.979,44.0,53.8,34.0,3.244,3.8,133,54,5.4,0.00766,0.00883,77.3,72.9,11,1023,0,114.8,13.82,0.00,0.00
15min,AgWx,beryljct,423,01JUL2018:13:30:00,87.9,13.49,81.3,81.3,81.7,83.1,81.0,31,40,18,1.335,47.6,55.3,34.6,4.362,4.4,114,28,8.3,0.00760,0.00883,78.0,73.0,11,1009,0,112.1,13.81,0.00,0.00
15min,AgWx,beryljct,423,01JUL2018:13:45:00,87.8,13.38,81.3,82.2,81.6,82.2,81.1,35,48,20,1.454,50.5,60.0,37.2,2.258,3.6,100,13,6.1,0.00740,0.00846,78.7,73.2,11,995,0,111.3,13.82,0.00,0.00
15min,AgWx,beryljct,423,01JUL2018:14:00:00,88.1,13.32,82.3,82.6,82.6,84.1,81.8,26,41,18,0.975,43.8,56.8,35.3,5.502,5.3,145,17,8.3,0.00756,0.00898,79.4,73.3,12,979,0,109.7,13.82,0.00,0.00
15min,AgWx,beryljct,423,01JUL2018:14:15:00,87.8,13.32,81.6,81.9,81.9,82.7,81.3,32,42,22,1.261,49.0,56.7,39.5,6.84,5.8,115,15,9.1,0.00736,0.00876,80.1,73.5,12,956,0,105.0,13.82,0.00,0.00
15min,AgWx,beryljct,423,01JUL2018:14:30:00,87.7,13.31,82.2,82.7,82.4,83.2,81.7,32,43,21,1.425,49.4,57.4,38.6,5.897,5.5,125,18,9.0,0.00720,0.00855,80.6,73.7,12,934,0,105.0,13.82,0.00,0.00
15min,AgWx,beryljct,423,01JUL2018:14:45:00,87.9,13.3,82.3,82.3,82.6,83.1,82.2,33,41,21,1.480,50.2,56.5,39.2,3.902,5.4,100,8.5,8.9,0.00699,0.00831,81.2,73.9,12,904,0,104.6,13.82,0.00,0.00
15min,AgWx,beryljct,423,01JUL2018:15:00:00,88.1,13.28,82.0,82.5,82.3,82.7,81.7,36,47,25,1.725,52.9,60.3,43.2,4.034,5.2,102,11,6.8,0.00669,0.00791,81.6,74.2,12,874,0,103.4,13.82,0.00,0.00
15min,AgWx,beryljct,423,01JUL2018:15:15:00,88.8,13.26,82.7,83.7,82.9,83.9,82.1,35,43,22,1.560,52.4,57.6,40.1,2.521,4.2,103,8.2,6.6,0.00638,0.00746,81.9,74.4,12,839,0,104.7,13.82,0.00,0.00
15min,AgWx,beryljct,423,01JUL2018:15:30:00,89.7,13.25,83.5,83.3,83.8,84.5,83.3,33,46,18,1.432,50.9,60.6,36.6,6.489,4.4,111,11,6.6,0.00615,0.00728,82.2,74.6,12,796,0,105.6,13.82,0.00,0.00
15min,AgWx,beryljct,423,01JUL2018:15:45:00,89.9,13.25,82.5,83.0,82.8,83.4,82.0,33,41,24,1.330,50.7,56.0,42.8,7.212,6.4,89,15,9.6,0.00581,0.00718,82.5,74.8,12,724,0,98.4,13.82,0.00,0.00
15min,AgWx,beryljct,423,01JUL2018:16:00:00,89.9,13.24,82.1,81.9,82.4,83.2,81.9,35,41,25,1.494,52.2,56.1,44.2,5.831,5.9,110,22,9.7,0.00572,0.00700,82.8,75.0,12,724,0,96.8,13.82,0.00,0.00
15min,AgWx,beryljct,423,01JUL2018:16:15:00,89.7,13.27,83.3,82.6,83.5,85.7,81.8,30,41,15,1.231,48.3,56.1,32.6,5.787,7.3,153,25,12.0,0.00572,0.00727,83.1,75.2,12,683,0,95.2,13.82,0.00,0.00
15min,AgWx,beryljct,423,01JUL2018:16:30:00,89.3,13.28,82.4,82.0,82.7,83.7,81.9,32,40,23,1.306,49.8,55.2,40.9,7.453,7.8,141,8.5,12.1,0.00534,0.00688,83.4,75.4,12,630,0,92.3,13.82,0.00,0.00
15min,AgWx,beryljct,423,01JUL2018:16:45:00,88.9,13.29,83.4,82.7,83.5,85.9,82.1,27,37,15,1.091,45.4,54.8,32.5,7.519,8.3,140,16,14.0,0.00534,0.00707,83.7,75.6,12,602,0,91.8,13.82,0.00,0.00
15min,AgWx,beryljct,423,01JUL2018:17:00:00,89.0,13.31,84.3,84.8,84.3,85.6,82.7,27,36,21,1.290,46.8,53.6,41.2,3.814,4.8,161,17,9.2,0.00448,0.00564,84.0,75.8,12,556,0,92.5,13.82,0.00,0.00
15min,AgWx,beryljct,423,01JUL2018:17:15:00,89.3,13.26,83.0,82.8,83.4,84.9,82.1,30,37,21,1.230,48.3,54.9,40.2,4.538,4.9,144,15,8.8,0.00411,0.00522,84.2,76.1,12,512,0,92.5,13.82,0.00,0.00
15min,AgWx,beryljct,423,01JUL2018:17:30:00,89.2,13.27,82.6,82.0,82.9,84.8,81.2,31,37,18,1.117,48.6,54.0,36.9,6.862,4.9,119,29,9.5,0.00375,0.00481,84.4,76.3,12,466,0,91.2,13.82,0.00,0.00
15min,AgWx,beryljct,423,01JUL2018:17:45:00,88.6,13.3,83.0,83.2,83.0,84.3,81.5,26,32,21,0.927,44.4,49.6,39.4,7.782,6.9,216,56,11.8,0.00377,0.00520,84.6,76.5,12,412,0,88.1,13.82,0.00,0.00
15min,AgWx,beryljct,423,01JUL2018:18:00:00,88.1,13.27,83.2,84.0,83.3,84.5,81.7,27,33,22,0.865,45.6,51.5,40.7,7.848,3.7,273,29,7.8,0.00281,0.00367,84.7,76.6,12,364,0,88.8,13.82,0.00,0.00
15min,AgWx,beryljct,423,01JUL2018:18:15:00,87.6,13.22,82.2,82.6,82.5,84.3,81.3,23,26,17,0.655,40.6,44.2,33.7,6.927,7.0,287,18,11.5,0.00312,0.00457,84.8,76.8,12,312,0,86.2,13.82,0.00,0.00
15min,AgWx,beryljct,423,01JUL2018:18:30:00,87.0,13.2,83.3,83.9,83.4,85.9,82.0,20,26,12,0.703,37.7,44.5,26.9,8.92,6.6,247,23,13.2,0.00272,0.00415,84.8,77.0,12,261,0,85.3,13.82,0.00,0.00
15min,AgWx,beryljct,423,01JUL2018:18:45:00,86.3,13.18,82.2,82.9,82.5,84.9,81.0,23,31,14,0.827,40.4,47.5,29.9,5.744,5.3,220,14,9.5,0.00205,0.00318,84.8,77.2,12,212,0,83.7,13.82,0.00,0.00
15min,AgWx,beryljct,423,01JUL2018:19:00:00,85.4,13.17,81.7,82.7,81.9,84.2,79.1,21,27,14,0.763,38.1,42.8,28.9,5.875,6.8,176,52,14.1,0.00206,0.00345,84.8,77.3,12,167,0,81.9,13.82,0.00,0.00
15min,AgWx,beryljct,423,01JUL2018:19:15:00,84.8,13.15,83.2,82.7,83.2,85.6,80.7,18,24,12,0.630,34.3,41.2,27.2,7.563,7.8,199,18,14.0,0.00150,0.00207,84.7,77.5,12,125,0,81.7,13.82,0.00,0.00
15min,AgWx,beryljct,423,01JUL2018:19:30:00,83.8,13.18,81.3,82.1,81.5,83.0,80.5,18,23,16,0.599,34.1,39.0,30.6,11.93,8.5,220,9.8,13.2,0.00143,0.00194,84.5,77.6,12,87,0,79.5,13.82,0.00,0.00
15min,AgWx,beryljct,423,01JUL2018:19:45:00,82.9,13.15,81.3,81.1,81.4,82.6,80.8,17,19,15,0.574,32.4,34.6,30.3,8.75,9.4,215,9.1,14.5,0.00145,0.00196,84.3,77.7,12,51,0,79.3,13.83,0.00,0.00
15min,AgWx,beryljct,423,01JUL2018:20:00:00,81.9,13.13,80.5,80.1,80.7,81.4,80.0,17,18,16,0.606,31.7,33.2,30.4,8.88,10.0,218,8.4,14.4,0.00141,0.00189,84.1,77.9,12,15,0,78.3,13.83,0.00,0.00
15min,AgWx,beryljct,423,01JUL2018:20:15:00,80.8,13.11,80.0,80.4,79.9,80.6,79.5,17,18,16,0.593,31.2,32.6,29.5,10.79,10.4,219,7.8,15.2,0.00139,0.00186,83.8,78.0,12,3,0,77.4,13.83,0.00,0.00
15min,AgWx,beryljct,423,01JUL2018:20:30:00,80.0,13.12,79.5,79.5,79.7,80.4,78.8,17,18,16,0.580,31.3,32.5,30.0,10.06,10.2,218,7.0,14.6,0.00136,0.00182,83.5,78.0,12,0,0,77.0,13.83,0.00,0.00
15min,AgWx,beryljct,423,01JUL2018:20:45:00,79.3,13.1,79.3,79.2,79.3,79.7,78.9,17,18,16,0.581,30.9,32.2,29.9,11.36,10.4,222,7.9,13.8,0.00137,0.00183,83.2,78.1,12,0,0,76.6,13.83,0.00,0.00
15min,AgWx,beryljct,423,01JUL2018:21:00:00,78.8,13.1,79.0,79.1,79.1,79.5,78.7,17,18,16,0.546,30.6,31.7,29.1,13.22,10.8,223,8.2,15.5,0.00140,0.00186,82.9,78.2,12,0,0,76.6,13.83,0.00,0.00
15min,AgWx,beryljct,423,01JUL2018:21:15:00,78.5,13.08,79.1,79.4,79.0,79.4,78.6,16,18,15,0.543,29.7,31.2,28.4,12.04,11.9,220,8.8,15.2,0.00152,0.00198,82.5,78.2,12,0,0,76.6,13.83,0.00,0.00
15min,AgWx,beryljct,423,01JUL2018:21:30:00,78.3,13.06,78.9,78.9,78.9,79.4,78.5,16,17,15,0.543,29.1,30.2,27.8,11.36,12.1,224,7.3,16.8,0.00154,0.00200,82.2,78.3,12,0,0,76.7,13.83,0.00,0.00
15min,AgWx,beryljct,423,01JUL2018:21:45:00,78.1,13.08,78.3,77.9,78.4,78.9,77.9,17,17,16,0.545,29.3,30.3,28.3,9.29,10.7,220,8.6,14.0,0.00139,0.00184,81.8,78.3,12,0,0,75.8,13.83,0.00,0.00
15min,AgWx,beryljct,423,01JUL2018:22:00:00,77.6,13.07,77.5,77.0,77.6,78.1,76.8,17,18,16,0.543,29.4,30.4,28.4,10.46,9.8,218,7.9,13.7,0.00127,0.00170,81.5,78.3,12,0,0,74.9,13.83,0.00,0.00
15min,AgWx,beryljct,423,01JUL2018:22:15:00,76.9,13.06,76.1,74.4,76.4,77.5,74.4,18,20,16,0.576,29.9,30.8,28.5,5.722,8.0,204,13,12.4,0.00104,0.00143,81.2,78.3,12,0,0,73.4,13.83,0.00,0.00
15min,AgWx,beryljct,423,01JUL2018:22:30:00,75.0,13.05,70.2,70.5,70.7,74.1,69.8,23,25,20,0.590,31.4,32.7,30.3,7.081,7.2,171,7.6,9.4,0.00078,0.00108,80.8,78.3,12,0,0,68.4,13.83,0.00,0.00
15min,AgWx,beryljct,423,01JUL2018:22:45:00,73.3,13.04,71.5,71.3,71.3,71.9,70.0,22,24,21,0.598,30.7,31.7,29.2,8.33,8.4,163,6.1,12.1,0.00093,0.00125,80.5,78.2,12,0,0,69.4,13.83,0.00,0.00
15min,AgWx,beryljct,423,01JUL2018:23:00:00,72.1,13.02,70.4,70.0,70.5,71.3,70.0,22,24,22,0.579,30.4,31.9,29.4,5.809,7.2,170,5.9,9.0,0.00079,0.00109,80.2,78.2,12,0,0,68.2,13.83,0.00,0.00
15min,AgWx,beryljct,423,01JUL2018:23:15:00,70.5,13.01,67.1,68.1,67.3,69.9,64.9,27,34,23,0.579,32.0,36.7,30.5,0.943,4.1,159,80,7.0,0.00035,0.00054,79.9,78.2,12,0,0,64.7,13.83,0.00,0.00
15min,AgWx,beryljct,423,01JUL2018:23:30:00,69.1,13.01,69.1,67.2,69.0,71.9,66.9,26,33,21,0.713,32.2,37.4,29.2,0.46,1.0,97,35,3.4,-0.00023,-0.00030,79.6,78.1,12,0,0,63.5,13.83,0.00,0.00
15min,AgWx,beryljct,423,01JUL2018:23:45:00,67.8,.,.,.,.,.,.,.,.,.,.,.,40.7,29.3,.,.,.,.,.,.,.,.,.,.,0,0,62.9,13.83,0.00,0.00
15min,AgWx,bigpiney,439,01JUL2018:00:00:00,43.7,12.8,41.5,41.3,41.1,41.3,40.9,76,77,76,0.670,34.3,34.5,34.0,2.324,2.6,259,10,4.6,-0.00011,-0.00012,54.7,53.6,54,0,0,0.0,.,0.00,0.00
15min,AgWx,bigpiney,439,01JUL2018:00:15:00,43.7,12.79,40.1,40.0,40.6,41.8,38.9,75,78,74,0.631,33.4,34.3,32.4,0.175,2.7,305,49,4.8,-0.00010,-0.00011,54.7,53.6,54,0,0,0.0,.,0.00,0.00
15min,AgWx,bigpiney,439,01JUL2018:00:30:00,43.4,12.78,37.0,37.1,38.9,40.3,37.1,78,82,73,0.606,32.7,33.4,31.7,3.266,1.1,94,31,4.4,-0.00020,-0.00027,54.6,53.6,54,0,0,0.0,.,0.00,0.00
15min,AgWx,bigpiney,439,01JUL2018:00:45:00,42.9,12.76,38.9,38.3,37.7,38.6,36.8,80,84,76,0.641,32.1,33.4,31.4,0,1.0,101,29,2.6,-0.00020,-0.00027,54.5,53.6,54,0,0,0.0,.,0.00,0.00
15min,AgWx,bigpiney,439,01JUL2018:01:00:00,42.2,12.76,37.4,37.2,38.4,39.3,37.1,82,87,77,0.653,33.3,33.9,32.4,2.85,1.7,142,16,3.2,-0.00016,-0.00021,54.4,53.6,54,0,0,0.0,.,0.00,0.00
15min,AgWx,bigpiney,439,01JUL2018:01:15:00,41.7,12.75,37.1,36.7,37.1,37.6,36.6,87,89,85,0.652,33.6,33.8,33.2,0,0.9,177,7.3,3.3,-0.00021,-0.00029,54.4,53.6,54,0,0,0.0,.,0.00,0.00
15min,AgWx,bigpiney,439,01JUL2018:01:30:00,41.1,12.73,35.8,35.5,36.6,37.1,35.5,89,91,88,0.639,33.6,34.1,33.1,1.118,0.4,267,30,2.3,-0.00023,-0.00035,54.3,53.6,54,0,89,0.0,.,0.00,0.00
15min,AgWx,bigpiney,439,01JUL2018:01:45:00,40.6,12.72,34.9,33.7,34.6,35.6,33.1,91,92,88,0.594,32.1,33.4,30.1,1.271,1.9,236,18,2.6,-0.00016,-0.00021,54.2,53.5,54,0,100,0.0,.,0.00,0.00
15min,AgWx,bigpiney,439,01JUL2018:02:00:00,39.9,12.71,36.7,36.2,35.5,36.2,33.9,91,93,89,0.638,33.1,33.5,31.6,1.6,1.8,275,22,3.4,-0.00017,-0.00022,54.1,53.5,54,0,100,0.0,.,0.00,0.00
15min,AgWx,bigpiney,439,01JUL2018:02:15:00,39.5,12.7,37.1,36.8,36.5,36.8,36.2,87,88,85,0.631,32.9,33.2,32.6,2.105,0.8,253,29,2.3,-0.00021,-0.00031,54.0,53.5,54,0,100,0.0,.,0.00,0.00
15min,AgWx,bigpiney,439,01JUL2018:02:30:00,39.1,12.68,34.7,34.8,36.6,37.6,34.8,86,87,85,0.588,32.7,33.6,31.1,2.696,1.8,245,25,2.7,-0.00016,-0.00020,54.0,53.5,54,0,100,0.0,.,0.00,0.00
15min,AgWx,bigpiney,439,01JUL2018:02:45:00,38.7,12.67,34.2,35.1,35.4,36.1,34.5,91,93,86,0.613,32.9,34.1,31.0,1.995,1.4,217,34,3.0,-0.00018,-0.00024,53.9,53.4,54,0,100,0.0,.,0.00,0.00
15min,AgWx,bigpiney,439,01JUL2018:03:00:00,38.4,12.66,36.1,35.5,35.0,35.5,34.5,90,92,88,0.618,32.4,33.2,31.5,2.938,2.8,269,18,3.9,-0.00013,-0.00016,53.8,53.5,54,0,100,0.0,.,0.00,0.00
15min,AgWx,bigpiney,439,01JUL2018:03:15:00,38.3,12.64,34.2,33.3,34.8,35.5,33.2,86,89,85,0.571,31.1,32.2,30.0,1.403,1.8,291,43,3.1,-0.00015,-0.00020,53.7,53.4,54,0,100,0.0,.,0.00,0.00
15min,AgWx,bigpiney,439,01JUL2018:03:30:00,37.9,12.64,32.3,32.2,33.2,34.4,32.2,88,90,84,0.555,29.9,31.1,29.1,3.31,2.9,222,16,5.0,-0.00011,-0.00014,53.6,53.4,54,0,100,0.0,.,0.00,0.00
15min,AgWx,bigpiney,439,01JUL2018:03:45:00,37.5,12.62,33.2,32.5,32.3,32.5,32.1,91,92,90,0.564,29.9,30.3,29.5,0.767,2.1,232,14,3.2,-0.00014,-0.00018,53.5,53.4,54,0,100,0.0,.,0.00,0.00
15min,AgWx,bigpiney,439,01JUL2018:04:00:00,37.1,12.6,34.2,33.9,33.8,34.2,32.5,91,92,89,0.589,31.4,31.9,30.1,1.184,1.4,273,10,2.5,-0.00018,-0.00024,53.4,53.4,54,0,100,0.0,.,0.00,0.00
15min,AgWx,bigpiney,439,01JUL2018:04:15:00,36.9,12.59,31.7,31.3,32.5,33.9,31.2,89,90,88,0.534,29.7,31.2,28.5,2.828,2.0,228,14,3.6,-0.00014,-0.00018,53.3,53.3,54,0,100,0.0,.,0.00,0.00
15min,AgWx,bigpiney,439,01JUL2018:04:30:00,36.5,12.58,31.9,31.6,31.6,31.8,31.3,90,90,89,0.542,28.9,29.1,28.6,2.631,2.3,220,12,3.5,-0.00013,-0.00016,53.2,53.3,54,0,100,0.0,.,0.00,0.00
15min,AgWx,bigpiney,439,01JUL2018:04:45:00,36.1,12.57,32.5,31.9,31.7,31.9,31.4,91,91,90,0.554,29.2,29.6,28.9,2.126,3.3,219,13,5.2,-0.00011,-0.00013,53.1,53.3,54,2,100,0.0,.,0.00,0.00
15min,AgWx,bigpiney,439,01JUL2018:05:00:00,35.9,12.57,31.9,31.9,32.6,33.2,31.9,91,92,89,0.544,30.2,30.8,29.2,4.735,2.2,253,26,4.7,-0.00009,-0.00007,53.0,53.3,54,5,100,0.0,.,0.00,0.00
15min,AgWx,bigpiney,439,01JUL2018:05:15:00,35.8,12.58,33.3,32.7,32.1,32.7,31.7,90,92,89,0.575,29.6,30.5,28.8,0.395,2.1,216,49,5.3,-0.00025,-0.00024,52.9,53.2,54,30,100,0.0,.,0.00,0.00
15min,AgWx,bigpiney,439,01JUL2018:05:30:00,35.9,12.59,33.1,33.1,32.8,33.2,32.6,92,92,91,0.588,30.6,31.1,30.3,4.735,1.6,219,38,4.7,-0.00009,-0.00008,52.9,53.2,54,39,100,0.0,.,0.00,0.00
15min,AgWx,bigpiney,439,01JUL2018:05:45:00,36.3,12.62,36.5,35.8,34.2,35.8,32.9,91,92,89,0.632,31.8,32.8,30.6,2.17,2.5,253,19,4.3,0.00007,0.00011,52.8,53.2,54,105,100,0.0,.,0.00,0.00
15min,AgWx,bigpiney,439,01JUL2018:06:00:00,37.3,12.63,36.3,35.9,36.1,36.6,35.7,88,89,86,0.616,32.7,33.4,31.9,2.543,2.3,341,24,4.2,0.00025,0.00030,52.6,53.2,54,143,8,0.0,.,0.00,0.00
15min,AgWx,bigpiney,439,01JUL2018:06:15:00,38.7,12.64,37.8,37.9,37.0,37.9,35.9,85,87,84,0.657,33.0,34.0,32.2,1.732,1.6,15,23,3.5,0.00045,0.00051,52.6,53.1,54,185,0,0.0,.,0.00,0.00
15min,AgWx,bigpiney,439,01JUL2018:06:30:00,40.4,12.67,40.2,39.9,38.8,39.9,37.8,83,85,81,0.682,34.0,35.2,32.7,1.315,0.8,25,18,2.8,0.00068,0.00075,52.5,53.0,54,229,0,0.0,.,0.00,0.00
15min,AgWx,bigpiney,439,01JUL2018:06:45:00,42.4,12.7,43.0,42.4,40.9,42.4,39.8,78,81,74,0.690,34.5,35.4,33.8,2.061,1.5,46,15,3.3,0.00096,0.00107,52.4,53.1,54,277,0,0.0,.,0.00,0.00
15min,AgWx,bigpiney,439,01JUL2018:07:00:00,44.4,12.72,45.4,44.1,43.4,44.6,42.3,72,76,67,0.662,35.2,36.3,33.9,0,1.5,23,30,3.3,0.00126,0.00141,52.3,53.0,54,324,0,0.0,.,0.00,0.00
15min,AgWx,bigpiney,439,01JUL2018:07:15:00,46.6,12.77,45.8,45.7,44.9,46.1,44.0,66,70,61,0.641,34.2,36.0,32.6,0,0.9,106,55,2.8,0.00155,0.00170,52.2,53.0,54,372,0,0.0,.,0.00,0.00
15min,AgWx,bigpiney,439,01JUL2018:07:30:00,48.7,12.96,46.7,47.9,46.7,47.9,45.6,63,66,61,0.738,34.8,37.0,33.1,3.179,0.9,83,43,3.2,0.00187,0.00204,52.1,53.0,54,420,0,0.0,.,0.00,0.00
15min,AgWx,bigpiney,439,01JUL2018:07:45:00,50.8,13.32,49.1,48.8,48.3,49.3,47.3,63,68,61,0.729,36.5,38.1,34.8,3.31,1.2,117,19,3.6,0.00219,0.00241,52.0,52.9,54,468,0,0.0,.,0.00,0.00
15min,AgWx,bigpiney,439,01JUL2018:08:00:00,52.5,13.65,51.5,50.8,49.8,50.9,48.7,61,63,58,0.756,36.7,38.7,35.4,1.71,1.5,90,29,3.2,0.00252,0.00278,51.9,52.9,54,515,0,0.0,.,0.00,0.00